Probability
0 0 0 0 0 0 0 0 0 0 0 0 0 0 0 0 0 0 0 0 0 0 2 5 7 7 6 6 7 7 7 6 6 7 9 9 8 7 6 5 5 6 6 6 6 4 1 1 1
0 0 0 0 0 0 0 0 0 0 0 0 0 0 0 0 0 0 0 0 0 0 2 5 7 7 6 6 8 9 8 7 7 7 9 9 9 7 6 6 6 6 6 6 6 5 3 3 3
0 0 0 0 0 0 0 0 0 0 0 0 0 0 0 0 0 0 0 0 0 1 3 6 7 6 6 7 8 10 10 10 9 8 9 9 9 9 7 7 7 7 7 7 7 6 5 5 6
0 0 0 0 0 0 0 0 0 0 0 0 0 0 0 0 0 0 0 0 0 1 4 8 8 7 6 7 8 10 12 12 11 9 9 9 10 9 9 7 7 8 9 8 7 6 6 6 6
0 0 0 0 0 0 0 0 0 0 0 0 0 0 0 0 0 0 0 0 1 2 5 8 9 9 8 9 9 10 12 13 13 12 11 10 10 10 9 8 8 9 10 9 8 7 6 6 6
0 0 0 0 0 0 0 0 0 0 0 0 0 0 0 0 1 0 0 1 2 5 6 7 9 9 9 10 10 10 11 13 14 14 13 12 11 10 10 9 9 9 10 9 9 8 7 7 7
0 0 0 0 0 0 0 0 0 0 0 0 0 0 0 0 0 0 0 2 4 6 6 7 9 9 8 8 9 9 9 11 14 14 13 12 11 11 10 9 9 9 10 10 9 9 9 8 7
0 0 0 0 0 0 0 0 0 0 0 0 0 0 0 0 0 1 2 4 5 5 5 7 9 9 8 6 7 7 7 8 11 11 11 10 11 10 10 10 10 10 10 10 10 10 9 8 7
0 0 0 0 0 0 0 0 0 0 0 0 0 0 0 1 1 2 4 6 6 4 3 4 7 9 9 7 6 6 5 5 6 7 8 8 9 9 10 10 10 10 10 10 10 9 9 7 6
0 0 0 0 0 0 0 0 0 0 0 0 0 0 0 1 2 3 5 6 6 4 2 3 5 8 9 9 8 6 5 3 3 4 5 6 7 8 8 8 8 8 8 8 8 8 7 5 3
0 0 0 0 0 0 0 0 0 0 0 0 0 0 0 0 1 1 3 5 5 4 2 2 4 6 8 9 9 7 4 2 1 2 4 4 5 6 6 6 6 7 6 6 6 6 4 2 1
0 0 0 0 0 0 0 0 0 0 0 0 0 0 0 0 0 0 1 2 4 4 3 2 3 5 6 8 9 7 4 3 1 1 2 3 3 4 4 4 5 6 5 4 4 3 2 0 0
0 0 0 0 0 0 0 0 0 0 0 0 0 0 0 0 0 0 0 0 2 3 3 2 2 3 5 7 8 7 6 5 2 1 1 2 3 3 4 4 5 6 6 4 3 2 1 0 0
0 0 0 0 0 0 0 0 0 0 0 0 0 0 0 0 0 0 0 0 1 2 3 3 2 2 3 5 6 7 8 7 3 0 0 1 2 3 3 4 5 6 6 5 3 2 1 0 0
0 0 0 0 0 0 0 0 0 0 0 0 0 0 0 0 0 0 0 1 1 1 2 3 3 1 1 3 5 7 7 7 4 1 0 0 1 2 3 4 4 4 4 3 2 1 1 0 0
0 0 0 0 0 0 0 0 0 0 0 0 0 0 0 0 0 0 0 1 2 1 0 1 1 0 1 3 5 6 6 6 4 2 0 0 0 1 2 3 3 1 1 1 1 1 1 0 0
0 0 0 0 0 0 0 0 0 0 0 0 0 0 0 0 0 0 0 1 1 1 0 0 0 1 1 3 4 6 6 5 3 1 0 0 0 0 1 2 1 0 0 0 0 1 1 0 0
0 0 0 0 0 0 0 0 0 0 0 0 0 0 0 0 0 0 0 0 0 0 0 0 1 2 3 3 4 6 6 4 2 1 0 0 0 0 0 0 0 0 0 0 0 0 0 0 0
0 0 0 0 0 0 0 0 0 0 0 0 0 0 0 0 0 0 0 0 0 0 0 0 1 2 3 3 4 5 6 4 2 1 1 1 0 0 0 0 0 0 0 0 0 0 0 0 0
0 0 0 0 0 0 0 0 0 0 0 0 0 0 0 0 0 0 0 0 0 0 0 0 0 1 3 3 3 4 5 4 3 3 2 2 1 0 0 0 0 0 0 0 0 0 0 0 0
0 0 0 0 0 0 0 0 0 0 0 0 0 0 0 0 0 0 0 0 0 0 0 0 0 1 3 3 3 3 3 3 2 2 3 2 1 0 0 0 0 0 0 0 0 0 0 0 0
0 0 0 0 0 0 0 0 0 0 0 0 0 0 0 0 0 0 0 0 0 0 0 0 1 2 3 3 3 3 3 2 1 1 1 2 2 1 1 1 0 0 0 0 0 0 0 0 0
0 0 0 0 0 0 0 0 0 0 0 0 0 0 0 0 0 0 0 0 0 0 0 0 1 2 3 3 3 3 3 2 1 0 0 1 1 2 2 2 1 0 0 0 0 0 0 0 0
0 0 0 0 0 0 0 0 0 0 0 0 0 0 0 0 0 0 0 0 0 0 0 0 0 1 2 3 3 3 3 2 1 0 0 0 0 1 2 2 1 0 0 0 0 0 0 0 0
0 0 0 0 0 0 0 0 0 0 0 0 0 0 0 0 0 0 0 0 0 0 0 0 0 0 1 3 3 3 3 3 1 0 0 0 0 0 1 1 0 0 0 0 0 0 0 0 0
0 0 0 0 0 0 0 0 0 0 0 0 0 0 0 0 0 0 0 0 0 0 0 0 0 0 1 2 2 3 3 4 2 1 0 0 0 0 0 0 0 0 0 0 0 0 0 0 0
0 0 0 0 0 0 0 0 0 0 0 0 0 0 0 0 0 0 0 0 0 0 0 0 0 0 0 1 1 1 2 2 2 1 0 0 0 0 0 0 0 0 1 0 0 0 0 0 0
0 0 0 0 0 0 0 0 0 0 0 0 0 0 0 0 0 0 0 0 0 0 0 0 0 0 0 0 0 0 1 1 0 0 0 0 0 0 0 0 0 0 0 0 0 0 0 0 0
0 0 0 0 0 0 0 0 0 0 0 0 0 0 0 0 0 0 0 0 0 0 0 0 0 0 0 0 1 0 0 0 0 0 0 0 0 0 0 0 0 0 0 0 0 0 0 0 0
0 0 0 0 0 0 0 0 0 0 0 0 0 0 0 0 0 0 0 0 0 0 0 0 0 0 0 0 1 0 0 0 0 0 0 0 0 0 0 0 0 0 0 0 0 0 0 0 0
Wind_Speed
7 4 2 4 6 3 4 4 2 1 1 1 1 2 4 4 3 2 1 1 2 2 2 2 4 5 5 6 6 6 8 9 9 10 11 12 12 12 12 12 12 12 12 13 13 13 14 14 14
2 2 5 5 4 2 5 3 3 3 2 1 2 2 2 0 1 1 1 1 1 2 2 2 4 5 5 6 7 6 7 8 9 10 10 11 11 11 12 11 12 12 12 12 13 13 13 14 14
1 4 4 4 3 6 5 2 4 1 0 1 1 1 1 0 1 1 2 1 1 2 2 2 4 5 5 6 7 7 7 7 8 9 10 11 11 11 11 11 12 12 12 12 12 13 13 13 13
3 4 5 3 5 5 3 1 1 1 1 1 2 1 1 2 2 2 2 1 3 2 2 2 4 5 5 6 6 6 7 7 7 8 9 10 10 11 11 11 11 11 12 12 12 12 12 13 13
4 4 3 2 6 3 1 1 0 1 0 1 1 0 1 2 4 4 2 2 3 2 2 2 4 4 5 5 5 6 7 7 7 8 9 9 10 10 10 10 10 11 11 12 12 12 12 12 12
4 4 3 6 6 3 1 1 0 1 1 1 1 0 1 2 5 4 2 2 2 2 2 2 3 4 4 5 5 5 6 6 7 7 8 9 9 9 9 10 10 11 11 11 11 11 12 12 12
4 4 4 5 4 3 2 1 1 1 1 1 0 0 3 2 4 3 2 2 2 2 2 1 1 2 4 4 4 5 6 5 6 7 7 8 8 8 9 9 9 10 10 10 11 11 12 12 11
4 4 2 3 4 4 1 1 1 1 2 1 1 1 2 3 3 3 3 3 3 3 2 2 2 1 2 2 3 5 5 5 5 6 7 7 7 7 8 7 8 9 10 10 11 11 12 11 11
3 3 5 5 5 3 1 1 1 1 1 1 1 0 2 1 2 3 3 3 2 2 2 2 2 2 2 1 2 3 4 4 4 4 6 6 3 3 4 6 8 8 9 9 10 11 11 11 10
3 4 6 2 2 2 1 1 0 1 1 1 2 3 3 2 3 3 2 1 1 0 1 1 1 2 2 2 1 1 2 2 3 3 3 3 3 3 4 6 8 8 8 9 10 11 10 8 5
3 4 1 0 1 1 1 1 1 1 2 2 2 2 1 1 2 2 2 3 3 2 1 1 1 1 2 1 1 1 1 2 2 3 3 3 3 3 3 3 3 4 6 5 6 6 4 4 4
2 1 0 1 1 1 1 1 1 1 3 2 2 1 0 1 2 2 2 2 1 0 0 1 0 1 2 2 2 2 1 1 1 2 3 3 2 2 2 2 2 3 2 3 3 3 4 4 5
1 1 1 1 2 1 2 1 1 3 3 2 2 2 1 1 1 1 1 1 1 1 1 1 0 1 1 2 2 2 2 2 1 2 2 2 3 3 2 2 2 3 2 3 3 3 4 4 4
0 0 1 1 1 1 1 3 2 4 2 2 1 1 0 1 1 1 2 2 2 2 2 1 1 0 1 2 1 2 2 2 2 1 2 2 2 3 3 2 2 2 2 2 2 3 3 3 3
1 1 3 2 1 1 0 4 5 4 1 2 2 2 1 2 2 1 1 1 2 2 2 1 1 1 1 2 2 2 2 2 2 1 2 2 2 3 3 3 2 2 2 3 3 3 3 3 4
2 1 3 2 1 1 1 8 4 2 0 2 3 2 2 2 2 2 2 2 2 2 2 2 1 1 1 1 2 2 2 2 2 1 1 2 2 3 3 3 2 2 2 3 3 3 3 3 3
2 2 4 3 1 1 2 6 3 2 1 3 3 2 2 3 3 3 3 3 2 1 1 1 1 1 1 0 1 2 2 2 2 2 1 1 2 3 3 3 3 3 3 3 3 3 3 3 3
3 3 3 3 2 1 3 6 4 3 2 3 3 3 3 3 4 3 3 3 3 1 1 1 0 1 1 1 1 2 2 2 2 1 1 2 1 2 3 3 3 3 3 2 3 4 3 3 4
1 2 4 4 2 2 5 8 6 3 2 3 4 4 3 4 4 4 3 3 3 2 2 1 1 1 0 0 1 1 1 1 1 1 1 1 1 2 2 3 4 3 3 3 4 3 4 3 3
1 2 4 4 3 2 5 8 6 2 2 2 3 3 4 4 5 6 5 4 4 3 2 1 1 0 0 1 1 1 1 1 1 1 1 1 1 2 2 3 3 3 3 4 4 4 3 2 2
2 3 3 4 5 2 4 7 3 2 1 2 2 2 2 3 4 5 5 4 4 3 3 2 1 1 1 1 1 1 1 1 1 1 1 1 1 1 1 3 3 3 4 4 4 5 5 4 1
4 2 3 2 2 4 1 6 5 3 3 3 4 3 4 4 3 4 4 5 4 3 3 2 1 1 0 2 2 2 2 2 2 1 1 1 1 1 1 2 3 3 3 4 4 4 3 5 4
3 3 1 1 1 2 1 3 8 2 4 5 4 4 4 4 3 4 4 4 4 4 3 2 2 2 1 0 2 3 2 1 1 1 1 2 1 1 2 2 2 2 2 3 4 4 4 4 4
1 2 3 3 2 3 4 4 8 3 4 4 3 3 4 4 4 4 4 4 5 5 4 3 3 2 2 1 0 2 3 2 1 1 1 1 1 1 1 2 2 2 2 3 4 4 5 4 4
3 4 4 5 3 6 2 4 9 5 3 3 3 3 4 3 3 4 5 5 5 6 4 3 3 3 2 1 1 1 3 3 3 3 3 2 1 1 2 2 2 2 3 3 3 4 4 4 4
1 4 4 4 5 5 2 7 8 3 3 2 2 2 3 4 3 4 4 4 4 5 4 3 3 3 3 1 1 1 1 2 2 3 3 3 2 2 2 3 3 3 3 3 3 3 4 4 4
2 2 2 3 1 4 6 7 8 3 3 3 3 3 4 4 4 4 4 4 4 5 4 2 2 3 3 2 1 1 1 1 2 2 2 2 2 2 2 2 2 3 3 4 4 3 4 4 4
2 4 3 3 2 5 6 5 6 6 5 3 3 4 4 4 4 4 4 4 4 4 4 3 2 2 2 2 1 1 1 1 1 2 2 2 2 2 2 3 3 3 3 3 4 3 3 4 3
2 2 3 3 3 4 5 8 5 5 4 4 4 3 4 5 4 4 4 3 3 4 4 3 3 3 3 3 2 1 2 2 2 2 2 2 2 3 3 3 4 3 4 4 4 4 4 4 4
3 4 5 4 5 4 4 10 3 3 2 3 3 4 4 4 4 3 3 4 3 3 4 4 4 3 3 3 3 2 2 2 2 2 2 2 2 2 3 3 4 4 4 4 5 5 5 5 5
Wind_Direction
344 354 46 54 58 54 232 234 212 235 246 235 152 133 149 153 162 190 308 84 74 135 155 155 126 114 114 114 112 109 109 112 115 113 112 110 108 106 106 104 101 98 96 94 94 95 94 92 91
341 13 51 62 100 202 253 234 209 212 202 65 36 61 91 117 31 15 343 333 86 134 134 138 125 117 111 118 116 110 115 113 119 118 114 113 111 109 107 105 102 98 96 94 92 95 95 94 92
19 51 82 88 149 198 220 219 210 215 343 86 55 36 106 302 347 300 303 294 110 123 106 130 126 120 115 117 122 120 117 116 121 120 117 115 114 112 110 107 103 100 96 95 95 95 97 96 95
71 54 61 97 216 222 212 241 199 158 1 50 107 360 344 22 341 312 334 108 119 116 99 129 123 121 120 119 117 124 122 121 124 125 120 117 115 115 112 107 104 101 99 98 98 97 97 97 97
61 83 91 229 237 240 245 294 110 115 36 23 89 343 308 13 2 7 35 107 122 117 103 126 121 121 119 123 122 119 125 124 126 132 127 122 118 114 113 110 107 106 104 101 99 99 95 96 96
63 77 137 225 236 241 248 285 33 46 334 17 70 179 266 11 11 2 36 91 104 111 95 110 126 118 118 119 122 121 116 123 126 132 134 127 120 115 110 110 110 108 106 105 103 101 98 95 97
111 118 192 215 235 243 227 184 166 191 251 293 106 105 296 354 360 4 40 67 73 82 80 67 107 121 119 117 120 119 114 109 120 127 129 124 117 115 112 110 111 110 107 105 105 103 102 97 97
122 117 188 217 220 243 212 96 64 192 222 327 90 145 283 320 7 40 57 61 66 64 59 48 44 75 105 123 119 112 108 104 103 115 119 116 114 117 112 109 109 109 107 106 106 104 101 97 95
91 104 221 215 203 230 129 101 3 8 85 38 49 343 309 45 70 75 57 49 51 38 32 39 45 46 58 88 104 109 107 99 94 95 105 105 103 104 104 101 104 104 104 105 106 102 98 93 90
99 191 229 214 188 163 118 133 190 46 -0 318 337 355 27 84 107 115 116 131 143 275 344 27 43 55 62 68 82 92 88 89 79 80 85 93 98 97 94 93 93 93 92 93 93 93 89 82 78
129 198 219 329 22 105 104 45 8 153 253 261 277 310 15 84 111 148 185 197 202 210 239 3 41 82 96 85 86 73 77 78 77 86 87 90 89 90 86 90 86 82 83 82 83 81 80 84 83
123 278 16 342 23 52 109 111 8 252 245 299 288 286 125 146 182 199 216 245 237 245 289 324 72 98 105 102 106 91 84 87 86 87 94 106 103 93 98 97 94 87 84 89 86 87 83 87 84
206 257 15 35 64 67 53 358 245 273 288 332 14 43 84 174 231 245 266 325 339 310 301 325 3 119 126 118 120 107 100 99 102 109 105 111 121 119 108 112 102 98 99 99 97 96 95 91 86
163 25 311 325 326 307 185 275 277 282 324 341 357 357 334 335 315 3 10 353 332 320 316 314 355 134 128 127 131 130 119 115 106 102 103 108 119 126 126 119 110 109 113 110 108 105 106 96 93
79 16 328 310 290 268 173 292 258 271 325 329 316 324 352 354 4 352 317 312 311 319 333 333 310 28 123 133 133 123 122 120 114 109 103 107 116 126 127 130 122 116 119 112 103 96 97 96 90
50 24 283 302 14 310 180 261 287 308 268 290 292 314 343 340 342 337 338 335 330 344 339 323 357 17 55 131 135 115 108 109 106 96 97 115 121 130 134 136 132 125 120 120 119 113 107 102 98
31 260 256 288 356 12 195 257 301 328 316 298 309 311 323 330 337 336 333 326 330 326 325 310 345 26 16 39 127 115 112 107 104 101 110 117 124 134 146 144 137 133 125 119 129 115 123 120 105
251 252 260 262 320 341 248 258 288 321 339 304 312 320 329 325 314 327 336 331 331 323 309 296 304 24 24 55 87 105 100 91 92 104 91 99 121 131 140 139 135 140 134 126 130 132 117 121 117
236 250 272 274 300 292 262 273 285 294 321 316 309 310 316 315 330 348 359 359 358 4 352 326 4 7 62 127 126 161 174 164 117 80 80 98 109 126 134 141 140 145 146 144 135 132 128 115 122
318 292 292 306 326 274 278 275 273 268 261 275 281 292 310 332 346 349 358 6 5 358 354 348 324 278 223 199 185 197 188 175 170 124 97 92 108 133 143 140 155 154 148 142 139 135 138 130 141
288 254 277 292 329 332 314 292 272 283 263 312 305 302 322 324 329 337 346 353 358 355 348 338 325 284 239 170 105 85 77 78 65 86 107 93 109 124 139 153 161 158 155 160 160 159 153 157 172
274 288 280 285 329 304 359 295 285 283 303 314 309 319 315 320 324 335 343 350 347 336 340 348 343 353 252 158 135 135 141 175 198 194 178 144 131 126 132 155 155 161 160 163 171 167 164 161 168
249 320 313 270 201 303 304 255 286 320 296 295 295 299 315 326 334 338 343 344 347 344 347 357 4 4 21 101 164 162 160 184 172 138 139 151 148 145 145 150 153 165 166 168 175 168 168 171 169
326 24 34 42 77 275 233 202 278 250 250 288 303 311 318 327 340 346 350 355 356 358 5 10 16 2 8 36 124 176 172 172 142 140 154 172 170 173 153 160 161 174 176 177 183 179 179 181 171
48 66 12 351 347 258 227 209 253 254 246 235 266 295 323 333 343 350 354 357 354 355 358 3 10 357 356 18 29 226 197 189 190 193 186 185 190 220 200 180 188 192 187 184 180 181 188 184 180
197 138 161 224 252 286 293 239 254 260 265 265 268 286 330 338 339 343 345 345 346 346 347 354 355 351 350 352 327 336 245 206 204 208 195 195 202 212 210 192 194 197 186 185 178 186 196 189 189
145 188 173 144 272 280 271 284 296 298 303 306 315 326 319 319 324 328 337 342 341 340 335 325 336 342 346 335 330 330 335 263 222 214 206 196 200 208 196 201 197 194 186 188 179 182 194 186 191
151 152 115 142 219 269 284 272 263 280 277 295 308 306 307 316 320 322 329 334 336 334 333 335 337 330 329 330 317 323 307 309 273 229 219 207 206 201 193 201 202 199 191 191 184 183 190 181 189
146 148 154 160 184 203 270 267 234 235 240 246 263 285 295 302 305 313 323 328 332 344 349 348 343 343 339 334 321 322 324 322 312 265 245 228 220 209 202 205 204 203 199 195 191 190 188 187 189
182 190 167 182 234 211 235 267 265 229 241 246 272 295 300 300 304 312 319 329 338 347 351 350 345 339 331 328 325 319 324 322 310 303 276 243 227 220 215 204 201 203 201 198 195 199 197 194 195